Previsão horária em Jurkow

Hoje, 18 Junho, Sexta-feira

Tempo Temperatura Precipitação Vento Pressão Humidade
00:00 +19°C° 0 mm 2 m/s 739 mmHg 74%
01:00 +19°C° 0 mm 2 m/s 739 mmHg 75%
02:00 +19°C° 0 mm 2 m/s 739 mmHg 75%
03:00 +18°C° 0 mm 2 m/s 739 mmHg 74%
04:00 +18°C° 0 mm 2 m/s 739 mmHg 74%
05:00 +20°C° 0 mm 2 m/s 739 mmHg 70%
06:00 +23°C° 0 mm 2 m/s 739 mmHg 66%
07:00 +25°C° 0 mm 2 m/s 739 mmHg 60%
08:00 +27°C° 0 mm 3 m/s 739 mmHg 54%
09:00 +28°C° 0 mm 3 m/s 739 mmHg 48%
10:00 +30°C° 0 mm 4 m/s 739 mmHg 42%
11:00 +30°C° 0 mm 4 m/s 739 mmHg 41%
12:00 +32°C° 0 mm 4 m/s 739 mmHg 40%
13:00 +32°C° 0 mm 4 m/s 739 mmHg 38%
14:00 +32°C° 0 mm 4 m/s 738 mmHg 40%
15:00 +32°C° 0 mm 4 m/s 738 mmHg 42%
16:00 +32°C° 0 mm 4 m/s 738 mmHg 44%
17:00 +29°C° 0 mm 3 m/s 738 mmHg 52%
18:00 +28°C° 0 mm 3 m/s 738 mmHg 59%
19:00 +26°C° 0 mm 2 m/s 738 mmHg 67%
20:00 +25°C° 0 mm 2 m/s 738 mmHg 68%
21:00 +23°C° 0 mm 2 m/s 738 mmHg 70%
22:00 +21°C° 0 mm 2 m/s 738 mmHg 72%
23:00 +20°C° 0 mm 2 m/s 738 mmHg 72%

Amanhã, 19 Junho, Sábado

Tempo Temperatura Precipitação Vento Pressão Humidade
00:00 +20°C° 0 mm 2 m/s 738 mmHg 73%
01:00 +19°C° 0 mm 2 m/s 738 mmHg 74%
02:00 +19°C° 0 mm 2 m/s 738 mmHg 74%
03:00 +19°C° 0 mm 2 m/s 738 mmHg 74%
04:00 +19°C° 0 mm 2 m/s 737 mmHg 74%
05:00 +21°C° 0 mm 2 m/s 738 mmHg 70%
06:00 +24°C° 0 mm 2 m/s 738 mmHg 65%
07:00 +26°C° 0 mm 2 m/s 738 mmHg 61%
08:00 +27°C° 0 mm 2 m/s 738 mmHg 56%
09:00 +29°C° 0 mm 2 m/s 738 mmHg 51%
10:00 +30°C° 0 mm 2 m/s 738 mmHg 45%
11:00 +31°C° 0 mm 2 m/s 738 mmHg 44%
12:00 +31°C° 0 mm 2 m/s 738 mmHg 42%
13:00 +32°C° 0 mm 2 m/s 737 mmHg 40%
14:00 +32°C° 0 mm 2 m/s 737 mmHg 42%
15:00 +33°C° 0 mm 3 m/s 737 mmHg 43%
16:00 +31°C° 0 mm 3 m/s 737 mmHg 45%
17:00 +30°C° 0.1 mm 2 m/s 737 mmHg 54%
18:00 +28°C° 0.1 mm 2 m/s 737 mmHg 62%
19:00 +27°C° 0.1 mm 1 m/s 737 mmHg 71%
20:00 +25°C° 0.1 mm 1 m/s 737 mmHg 75%
21:00 +24°C° 0.1 mm 1 m/s 737 mmHg 78%
22:00 +22°C° 0.1 mm 1 m/s 737 mmHg 82%
23:00 +21°C° 0.2 mm 1 m/s 737 mmHg 85%

Depois de amanhã, 20 Junho, Domingo

Tempo Temperatura Precipitação Vento Pressão Humidade
00:00 +21°C° 0.2 mm 1 m/s 737 mmHg 88%
01:00 +20°C° 0.2 mm 1 m/s 737 mmHg 91%
02:00 +20°C° 0 mm 1 m/s 736 mmHg 91%
03:00 +20°C° 0 mm 1 m/s 736 mmHg 92%
04:00 +20°C° 0 mm 1 m/s 735 mmHg 92%
05:00 +21°C° 0 mm 1 m/s 735 mmHg 86%
06:00 +23°C° 0 mm 2 m/s 735 mmHg 81%
07:00 +24°C° 0 mm 3 m/s 735 mmHg 76%
08:00 +26°C° 0 mm 3 m/s 735 mmHg 68%
09:00 +27°C° 0 mm 3 m/s 735 mmHg 61%
10:00 +29°C° 0 mm 4 m/s 735 mmHg 54%
11:00 +30°C° 0 mm 4 m/s 735 mmHg 52%
12:00 +30°C° 0 mm 4 m/s 735 mmHg 50%
13:00 +32°C° 0 mm 4 m/s 734 mmHg 48%
14:00 +32°C° 0 mm 4 m/s 734 mmHg 49%
15:00 +30°C° 0 mm 4 m/s 734 mmHg 50%
16:00 +30°C° 0 mm 3 m/s 734 mmHg 51%
17:00 +29°C° 0 mm 3 m/s 733 mmHg 56%
18:00 +28°C° 0 mm 3 m/s 733 mmHg 62%
19:00 +27°C° 0 mm 3 m/s 733 mmHg 67%
20:00 +25°C° 0 mm 3 m/s 732 mmHg 71%
21:00 +24°C° 0 mm 3 m/s 732 mmHg 75%
22:00 +21°C° 0 mm 3 m/s 732 mmHg 79%
23:00 +21°C° 0.1 mm 2 m/s 732 mmHg 81%

21 Junho, Segunda-feira

Tempo Temperatura Precipitação Vento Pressão Humidade
00:00 +20°C° 0.1 mm 2 m/s 732 mmHg 83%
01:00 +20°C° 0.1 mm 2 m/s 731 mmHg 85%
02:00 +20°C° 0 mm 2 m/s 731 mmHg 87%
03:00 +19°C° 0 mm 2 m/s 731 mmHg 88%
04:00 +19°C° 0 mm 2 m/s 730 mmHg 90%
05:00 +20°C° 0.1 mm 2 m/s 731 mmHg 86%
06:00 +21°C° 0.1 mm 2 m/s 731 mmHg 82%
07:00 +22°C° 0.1 mm 3 m/s 731 mmHg 78%
08:00 +22°C° 0.4 mm 3 m/s 732 mmHg 78%
09:00 +22°C° 0.4 mm 3 m/s 732 mmHg 78%
10:00 +22°C° 0.4 mm 3 m/s 732 mmHg 78%
11:00 +22°C° 0 mm 3 m/s 732 mmHg 75%
12:00 +24°C° 0 mm 2 m/s 732 mmHg 72%
13:00 +24°C° 0 mm 2 m/s 732 mmHg 69%
14:00 +25°C° 0.1 mm 2 m/s 732 mmHg 66%
15:00 +26°C° 0.1 mm 3 m/s 732 mmHg 63%
16:00 +27°C° 0.1 mm 3 m/s 732 mmHg 59%
17:00 +26°C° 0 mm 3 m/s 732 mmHg 63%
18:00 +25°C° 0 mm 3 m/s 732 mmHg 67%
19:00 +25°C° 0 mm 2 m/s 732 mmHg 72%
20:00 +23°C° 0.1 mm 2 m/s 732 mmHg 76%
21:00 +21°C° 0.1 mm 2 m/s 732 mmHg 80%
22:00 +19°C° 0.1 mm 2 m/s 733 mmHg 85%
23:00 +20°C° 0 mm 1 m/s 733 mmHg 87%

22 Junho, Terça-feira

Tempo Temperatura Precipitação Vento Pressão Humidade
00:00 +19°C° 0 mm 1 m/s 733 mmHg 90%
01:00 +17°C° 0 mm 0 m/s 733 mmHg 92%
02:00 +17°C° 0 mm 0 m/s 733 mmHg 93%
03:00 +19°C° 0 mm 1 m/s 733 mmHg 93%
04:00 +19°C° 0 mm 1 m/s 733 mmHg 93%
05:00 +20°C° 0 mm 1 m/s 734 mmHg 88%
06:00 +22°C° 0 mm 1 m/s 734 mmHg 82%
07:00 +23°C° 0 mm 1 m/s 734 mmHg 77%
08:00 +25°C° 0 mm 1 m/s 735 mmHg 71%
09:00 +26°C° 0 mm 2 m/s 735 mmHg 65%
10:00 +27°C° 0 mm 2 m/s 735 mmHg 59%
11:00 +27°C° 0.2 mm 2 m/s 735 mmHg 58%
12:00 +28°C° 0.2 mm 2 m/s 735 mmHg 57%
13:00 +28°C° 0.2 mm 2 m/s 735 mmHg 56%
14:00 +28°C° 0.6 mm 2 m/s 735 mmHg 58%
15:00 +28°C° 0.6 mm 2 m/s 735 mmHg 59%
16:00 +28°C° 0.6 mm 2 m/s 735 mmHg 61%
17:00 +26°C° 1.4 mm 2 m/s 735 mmHg 67%
18:00 +25°C° 1.4 mm 2 m/s 735 mmHg 74%
19:00 +24°C° 1.4 mm 2 m/s 735 mmHg 81%
20:00 +23°C° 1.7 mm 2 m/s 736 mmHg 85%
21:00 +22°C° 1.7 mm 1 m/s 736 mmHg 89%
22:00 +21°C° 1.7 mm 1 m/s 736 mmHg 94%
23:00 +20°C° 0.6 mm 1 m/s 736 mmHg 95%

23 Junho, Quarta-feira

Tempo Temperatura Precipitação Vento Pressão Humidade
00:00 +19°C° 0.6 mm 2 m/s 736 mmHg 96%
01:00 +18°C° 0.6 mm 2 m/s 736 mmHg 97%
02:00 +18°C° 1.3 mm 2 m/s 736 mmHg 97%
03:00 +19°C° 1.3 mm 1 m/s 736 mmHg 97%
04:00 +19°C° 1.3 mm 1 m/s 736 mmHg 97%
05:00 +19°C° 1.1 mm 1 m/s 737 mmHg 97%
06:00 +19°C° 1.1 mm 1 m/s 737 mmHg 96%
07:00 +18°C° 1.1 mm 2 m/s 737 mmHg 96%
08:00 +19°C° 0.3 mm 2 m/s 737 mmHg 95%
09:00 +19°C° 0.3 mm 2 m/s 737 mmHg 94%
10:00 +19°C° 0.3 mm 2 m/s 738 mmHg 93%
11:00 +20°C° 0.3 mm 2 m/s 738 mmHg 91%
12:00 +20°C° 0.3 mm 2 m/s 738 mmHg 88%
13:00 +21°C° 0.3 mm 2 m/s 738 mmHg 86%
14:00 +21°C° 0.1 mm 2 m/s 738 mmHg 85%
15:00 +21°C° 0.1 mm 2 m/s 738 mmHg 85%
16:00 +21°C° 0.1 mm 2 m/s 738 mmHg 85%
17:00 +21°C° 0 mm 2 m/s 737 mmHg 85%
18:00 +21°C° 0 mm 2 m/s 737 mmHg 85%
19:00 +21°C° 0 mm 2 m/s 737 mmHg 85%
20:00 +20°C° 1.7 mm 3 m/s 736 mmHg 88%
21:00 +19°C° 1.7 mm 4 m/s 735 mmHg 90%
22:00 +17°C° 1.7 mm 5 m/s 735 mmHg 93%
23:00 +18°C° 7.8 mm 4 m/s 735 mmHg 95%
Mostrar mais

Necessitamos do seu Consentimento

A Meteoprog e os seus Fornecedores de Serviços podem armazenar e aceder a dados pessoais como cookies, identificadores do dispositivo ou outras tecnologias semelhantes existentes no seu dispositivo e processar estes dados para personalizar conteúdos e anúncios, assim como funcionalidades nas redes sociais e análise de tráfego.

  • Armazenar e/ou aceder a informações no seu dispositivo

    Os cookies, identificadores do dispositivo ou outras informações podem ser armazenados ou acedidos no seu dispositivo, para os fins acima indicados.

  • Anúncios e conteúdos personalizados, medição de anúncios e conteúdos, dados sobre o público-alvo e desenvolvimento de produtos

    Os anúncios e os conteúdos podem ser personalizados com base num perfil. Podem ser adicionados dados adicionais para uma maior personalização dos anúncios e dos conteúdos. A eficácia dos anúncios e dos conteúdos pode ser medida. Podem ser obtidas informações sobre o público que visualizou os anúncios e os conteúdos. Estes dados podem ser usados para desenvolver ou melhorar sistemas, softwares ou a experiência do utilizador.

Ao clicar em "Eu concordo”, permitirá o uso de cookies, identificadores do dispositivo e web beacons mencionados ou outras tecnologias semelhantes. As configurações do navegador do seu dispositivo podem ser alteradas.

Para certos fins, podem ser invocados interesses legítimos ao invés de consentimento. Pode ler mais informação sobre este assunto na nossa Política de Privacidade e Cookies.